Erie, CO

8:20 AM MST on December 15, 2017 (GMT -0700)
Erie Municipal Airport

Weather History for KEIK - January, 2014

Change the Weather History Date:

Monday, January 6, 2014

  Actual Average (KBJC) Record (KBJC)
Temperature  
Mean Temperature 0 °F -  
Max Temperature 20 °F 44 °F 66 °F (2006)
Min Temperature -13 °F 24 °F -4 °F (2004)
Degree Days  
Heating Degree Days 65    
Moisture  
Dew Point -3 °F    
Average Humidity 81    
Maximum Humidity 92    
Minimum Humidity 59    
Precipitation  
Precipitation 0.00 in - - ()
Sea Level Pressure  
Sea Level Pressure 30.16 in    
Wind  
Wind Speed 1 mph (NNW)    
Max Wind Speed 7 mph    
Max Gust Speed -    
Visibility 10 miles    
Events      
Averages and records for this station are not official NWS values.
T = Trace of Precipitation, MM = Missing Value Source: NWS Daily Summary

Daily Weather History Graph

Daily Weather History Graph

Search for Another Location

Airport or City:

Trip Planner

Search our weather history database for the weather conditions in past years. The results will help you decide how hot, cold, wet, or windy it might be!

Date:

Astronomy

Jan. 06, 2014 Rise Set
Actual Time 7:22 AM MST 4:50 PM MST
Civil Twilight 6:52 AM MST 5:20 PM MST
Nautical Twilight 6:18 AM MST 5:54 PM MST
Astronomical Twilight 5:45 AM MST 6:27 PM MST
Moon 10:39 AM MST (1/6) 11:26 PM MST (1/6)
Length of Visible Light 10h 28m
Length of Day
9h 27m
Waxing Crescent, 35% of the Moon is Illuminated
Jan 6
Waxing Crescent
Jan 7
First Quarter
Jan 15
Full
Jan 23
Last Quarter
Jan 30
New

Hourly Weather History & Observations

Time (MST) Temp. Windchill Dew Point Humidity Pressure Visibility Wind Dir Wind Speed Gust Speed Precip Events Conditions
12:14 AM -8.5 °F - -12.6 °F 82% 30.22 in 10.0 mi Calm Calm - N/A   Clear
12:34 AM -9.8 °F - -14.1 °F 81% 30.22 in 10.0 mi Calm Calm - N/A   Clear
12:54 AM -10.7 °F - -15.2 °F 80% 30.21 in 10.0 mi Calm Calm - N/A   Clear
1:14 AM -11.4 °F - -15.5 °F 82% 30.21 in 10.0 mi Calm Calm - N/A   Clear
1:34 AM -11.4 °F - -15.7 °F 81% 30.21 in 7.0 mi Calm Calm - N/A   Clear
1:54 AM -10.7 °F - -15.0 °F 81% 30.22 in 10.0 mi Calm Calm - N/A   Clear
2:14 AM -9.4 °F -18.6 °F -13.7 °F 81% 30.22 in 5.0 mi SSE 3.5 mph - N/A   Clear
2:34 AM -8.3 °F -17.3 °F -12.3 °F 83% 30.22 in 5.0 mi SSW 3.5 mph - N/A   Clear
2:54 AM -10.8 °F - -15.5 °F 80% 30.21 in 10.0 mi Calm Calm - N/A   Clear
3:14 AM -9.4 °F -18.6 °F -13.4 °F 83% 30.20 in 10.0 mi SE 3.5 mph - N/A   Clear
3:34 AM -9.0 °F - -13.2 °F 82% 30.20 in 10.0 mi Calm Calm - N/A   Clear
3:54 AM -9.0 °F - -13.2 °F 82% 30.19 in 10.0 mi Calm Calm - N/A   Clear
4:14 AM -9.6 °F - -13.9 °F 81% 30.19 in 10.0 mi Calm Calm - N/A   Clear
4:34 AM -11.2 °F - -15.7 °F 80% 30.18 in 1.0 mi Calm Calm - N/A   Haze
4:54 AM -11.7 °F - -16.6 °F 79% 30.18 in 10.0 mi Calm Calm - N/A   Clear
5:14 AM -11.4 °F - -15.9 °F 80% 30.18 in 10.0 mi Calm Calm - N/A   Clear
5:34 AM -11.7 °F - -15.9 °F 82% 30.19 in 10.0 mi Calm Calm - N/A   Clear
5:54 AM -10.8 °F - -15.2 °F 81% 30.19 in 10.0 mi Calm Calm - N/A   Clear
6:14 AM -13.0 °F - -17.9 °F 79% 30.21 in 4.0 mi Calm Calm - N/A   Haze
6:34 AM -11.6 °F - -15.9 °F 81% 30.22 in 10.0 mi Calm Calm - N/A   Clear
6:54 AM -11.0 °F - -15.2 °F 82% 30.22 in 10.0 mi Calm Calm - N/A   Clear
7:14 AM -11.7 °F - -16.1 °F 81% 30.23 in 10.0 mi Calm Calm - N/A   Clear
7:34 AM -11.0 °F - -15.5 °F 80% 30.23 in 7.0 mi Calm Calm - N/A   Clear
7:54 AM -11.2 °F - -15.7 °F 80% 30.22 in 10.0 mi Calm Calm - N/A   Clear
8:14 AM -8.3 °F - -12.1 °F 84% 30.23 in 10.0 mi Calm Calm - N/A   Clear
8:34 AM -6.7 °F - -10.3 °F 84% 30.24 in 10.0 mi Calm Calm - N/A   Clear
8:54 AM -5.3 °F - -9.0 °F 84% 30.24 in 10.0 mi Calm Calm - N/A   Clear
9:14 AM -1.5 °F - -4.4 °F 88% 30.24 in 4.0 mi Calm Calm - N/A   Clear
9:34 AM 1.4 °F - -1.5 °F 88% 30.22 in 10.0 mi Calm Calm - N/A   Clear
9:54 AM 3.9 °F - 1.4 °F 89% 30.22 in 10.0 mi Calm Calm - N/A   Clear
10:14 AM 6.1 °F - 3.2 °F 88% 30.21 in 10.0 mi Calm Calm - N/A   Clear
10:34 AM 7.5 °F - 5.0 °F 89% 30.21 in 10.0 mi Calm Calm - N/A   Clear
10:54 AM 8.6 °F 2.0 °F 6.4 °F 91% 30.20 in 10.0 mi North 3.5 mph - N/A   Clear
11:14 AM 9.5 °F 1.2 °F 7.5 °F 92% 30.19 in 10.0 mi North 4.6 mph - N/A   Clear
11:34 AM 9.5 °F -0.3 °F 7.5 °F 92% 30.18 in 10.0 mi NNE 5.8 mph - N/A   Clear
11:54 AM 9.5 °F - 7.5 °F 92% 30.18 in 10.0 mi Calm Calm - N/A   Clear
12:14 PM 9.7 °F 3.2 °F 7.7 °F 92% 30.16 in 10.0 mi North 3.5 mph - N/A   Clear
12:34 PM 10.2 °F - 6.6 °F 85% 30.15 in 10.0 mi Calm Calm - N/A   Clear
12:54 PM 11.7 °F 3.7 °F 4.5 °F 73% 30.13 in 10.0 mi North 4.6 mph - N/A   Clear
1:14 PM 13.8 °F 6.2 °F 4.8 °F 67% 30.12 in 10.0 mi NNE 4.6 mph - N/A   Clear
1:34 PM 13.1 °F 4.0 °F 3.7 °F 66% 30.11 in 10.0 mi NNE 5.8 mph - N/A   Clear
1:54 PM 12.9 °F 2.6 °F 4.5 °F 69% 30.12 in 10.0 mi North 6.9 mph - N/A   Clear
2:14 PM 13.1 °F 2.8 °F 4.3 °F 68% 30.12 in 10.0 mi North 6.9 mph - N/A   Clear
2:34 PM 13.6 °F 7.7 °F 3.7 °F 65% 30.13 in 10.0 mi North 3.5 mph - N/A   Clear
2:54 PM 12.9 °F 2.6 °F 1.2 °F 60% 30.14 in 10.0 mi North 6.9 mph - N/A   Clear
3:14 PM 13.1 °F 2.8 °F 1.0 °F 59% 30.14 in 10.0 mi North 6.9 mph - N/A   Clear
3:34 PM 12.9 °F 5.2 °F 1.6 °F 61% 30.15 in 10.0 mi WNW 4.6 mph - N/A   Clear
3:54 PM 12.2 °F - 2.3 °F 65% 30.14 in 10.0 mi Calm Calm - N/A   Clear
4:14 PM 12.9 °F - 2.8 °F 64% 30.12 in 10.0 mi Calm Calm - N/A   Clear
4:34 PM 12.0 °F - 3.7 °F 69% 30.12 in 10.0 mi Calm Calm - N/A   Clear
4:54 PM 11.5 °F 5.3 °F 4.3 °F 73% 30.10 in 10.0 mi SSW 3.5 mph - N/A   Clear
5:14 PM 10.8 °F - 3.4 °F 72% 30.10 in 10.0 mi Calm Calm - N/A   Clear
5:34 PM 7.0 °F - 1.8 °F 79% 30.11 in 10.0 mi Calm Calm - N/A   Clear
5:54 PM 7.2 °F - 2.3 °F 80% 30.11 in 10.0 mi Calm Calm - N/A   Clear
6:14 PM 5.2 °F - 1.6 °F 85% 30.12 in 10.0 mi Calm Calm - N/A   Clear
6:34 PM 5.5 °F - 2.7 °F 88% 30.12 in 10.0 mi Calm Calm - N/A   Clear
6:54 PM 6.4 °F - 3.6 °F 88% 30.11 in 10.0 mi Calm Calm - N/A   Clear
7:14 PM 4.3 °F - 1.6 °F 89% 30.10 in 10.0 mi Calm Calm - N/A   Clear
7:34 PM 5.4 °F - 3.0 °F 90% 30.10 in 10.0 mi Calm Calm - N/A   Clear
7:54 PM 4.1 °F - 1.6 °F 89% 30.10 in 10.0 mi Calm Calm - N/A   Clear
8:14 PM 5.0 °F - 2.8 °F 91% 30.10 in 10.0 mi Calm Calm - N/A   Clear
8:34 PM 4.6 °F -2.5 °F 1.9 °F 89% 30.09 in 10.0 mi SW 3.5 mph - N/A   Clear
8:54 PM 3.4 °F -4.0 °F 0.7 °F 89% 30.07 in 10.0 mi SSW 3.5 mph - N/A   Clear
9:14 PM 7.3 °F - 4.5 °F 88% 30.07 in 10.0 mi Calm Calm - N/A   Clear
9:34 PM 4.6 °F -4.5 °F 0.7 °F 84% 30.07 in 10.0 mi NNW 4.6 mph - N/A   Clear
9:54 PM 4.5 °F - 1.4 °F 87% 30.09 in 10.0 mi Calm Calm - N/A   Clear
10:14 PM 5.4 °F - 2.1 °F 86% 30.08 in 10.0 mi Calm Calm - N/A   Clear
10:34 PM 6.4 °F - 2.7 °F 84% 30.07 in 10.0 mi Calm Calm - N/A   Clear
10:54 PM 4.5 °F - 1.4 °F 87% 30.06 in 10.0 mi Calm Calm - N/A   Clear
11:14 PM 5.4 °F - 2.1 °F 86% 30.05 in 10.0 mi Calm Calm - N/A   Clear
11:34 PM 7.0 °F - 3.9 °F 87% 30.04 in 10.0 mi Calm Calm - N/A   Clear
11:54 PM 20.3 °F 12.5 °F 12.7 °F 73% 30.04 in 10.0 mi SW 5.8 mph - N/A   Clear